Year,Month,Day,Hour,Minute,Value (Times are PST for temperature in C)
2008,08,04,00,00,17.40
2008,08,04,00,01,17.30
2008,08,04,00,02,17.30
2008,08,04,00,03,17.30
2008,08,04,00,04,17.30
2008,08,04,00,05,17.30
2008,08,04,00,06,17.30
2008,08,04,00,07,17.20
2008,08,04,00,08,17.20
2008,08,04,00,09,17.20
2008,08,04,00,10,17.10
2008,08,04,00,11,17.00
2008,08,04,00,12,16.90
2008,08,04,00,13,16.80
2008,08,04,00,14,16.70
2008,08,04,00,15,16.60
2008,08,04,00,16,16.50
2008,08,04,00,17,16.30
2008,08,04,00,18,16.20
2008,08,04,00,19,16.20
2008,08,04,00,20,16.10
2008,08,04,00,21,16.10
2008,08,04,00,22,16.00
2008,08,04,00,23,15.90
2008,08,04,00,24,15.90
2008,08,04,00,25,15.80
2008,08,04,00,26,15.60
2008,08,04,00,27,15.20
2008,08,04,00,28,15.00
2008,08,04,00,29,15.00
2008,08,04,00,30,15.00
2008,08,04,00,31,15.00
2008,08,04,00,32,15.00
2008,08,04,00,33,15.00
2008,08,04,00,34,15.00
2008,08,04,00,35,15.00
2008,08,04,00,36,15.00
2008,08,04,00,37,15.00
2008,08,04,00,38,15.00
2008,08,04,00,39,15.10
2008,08,04,00,40,15.30
2008,08,04,00,41,15.50
2008,08,04,00,42,15.80
2008,08,04,00,43,16.00
2008,08,04,00,44,16.30
2008,08,04,00,45,16.50
2008,08,04,00,46,16.70
2008,08,04,00,47,16.80
2008,08,04,00,48,16.90
2008,08,04,00,49,17.00
2008,08,04,00,50,17.00
2008,08,04,00,51,17.00
2008,08,04,00,52,17.00
2008,08,04,00,53,17.10
2008,08,04,00,54,17.10
2008,08,04,00,55,17.10
2008,08,04,00,56,17.10
2008,08,04,00,57,17.00
2008,08,04,00,58,17.00
2008,08,04,00,59,17.00
2008,08,04,01,00,17.00
2008,08,04,01,01,17.00
2008,08,04,01,02,17.00
2008,08,04,01,03,17.00
2008,08,04,01,04,17.00
2008,08,04,01,05,17.00
2008,08,04,01,06,17.00
2008,08,04,01,07,17.00
2008,08,04,01,08,16.90
2008,08,04,01,09,16.90
2008,08,04,01,10,16.80
2008,08,04,01,11,16.70
2008,08,04,01,12,16.70
2008,08,04,01,13,16.70
2008,08,04,01,14,16.70
2008,08,04,01,15,16.70
2008,08,04,01,16,16.60
2008,08,04,01,17,16.50
2008,08,04,01,18,16.40
2008,08,04,01,19,16.40
2008,08,04,01,20,16.30
2008,08,04,01,21,16.10
2008,08,04,01,22,16.00
2008,08,04,01,23,15.90
2008,08,04,01,24,15.70
2008,08,04,01,25,15.60
2008,08,04,01,26,15.50
2008,08,04,01,27,15.40
2008,08,04,01,28,15.30
2008,08,04,01,29,15.10
2008,08,04,01,30,15.00
2008,08,04,01,31,14.90
2008,08,04,01,32,14.70
2008,08,04,01,33,14.70
2008,08,04,01,34,14.50
2008,08,04,01,35,14.40
2008,08,04,01,36,14.30
2008,08,04,01,37,14.20
2008,08,04,01,38,14.10
2008,08,04,01,39,14.10
2008,08,04,01,40,14.00
2008,08,04,01,41,13.90
2008,08,04,01,42,13.90
2008,08,04,01,43,13.90
2008,08,04,01,44,13.90
2008,08,04,01,45,13.90
2008,08,04,01,46,13.90
2008,08,04,01,47,13.90
2008,08,04,01,48,13.90
2008,08,04,01,49,13.80
2008,08,04,01,50,13.80
2008,08,04,01,51,13.80
2008,08,04,01,52,13.80
2008,08,04,01,53,13.90
2008,08,04,01,54,14.00
2008,08,04,01,55,14.10
2008,08,04,01,56,14.20
2008,08,04,01,57,14.40
2008,08,04,01,58,14.60
2008,08,04,01,59,14.90
2008,08,04,02,00,15.00
2008,08,04,02,01,15.30
2008,08,04,02,02,15.50
2008,08,04,02,03,15.70
2008,08,04,02,04,15.90
2008,08,04,02,05,16.10
2008,08,04,02,06,16.20
2008,08,04,02,07,16.30
2008,08,04,02,08,16.30
2008,08,04,02,09,16.30
2008,08,04,02,10,16.30
2008,08,04,02,11,16.20
2008,08,04,02,12,16.20
2008,08,04,02,13,16.10
2008,08,04,02,14,16.00
2008,08,04,02,15,15.90
2008,08,04,02,16,15.80
2008,08,04,02,17,15.80
2008,08,04,02,18,15.70
2008,08,04,02,19,15.60
2008,08,04,02,20,15.60
2008,08,04,02,21,15.50
2008,08,04,02,22,15.40
2008,08,04,02,23,15.30
2008,08,04,02,24,15.20
2008,08,04,02,25,15.00
2008,08,04,02,26,15.00
2008,08,04,02,27,15.00
2008,08,04,02,28,15.00
2008,08,04,02,29,15.00
2008,08,04,02,30,15.00
2008,08,04,02,31,15.20
2008,08,04,02,32,15.30
2008,08,04,02,33,15.30
2008,08,04,02,34,15.40
2008,08,04,02,35,15.50
2008,08,04,02,36,15.60
2008,08,04,02,37,15.70
2008,08,04,02,38,15.80
2008,08,04,02,39,15.90
2008,08,04,02,40,16.00
2008,08,04,02,41,16.10
2008,08,04,02,42,16.10
2008,08,04,02,43,16.10
2008,08,04,02,44,16.10
2008,08,04,02,45,16.00
2008,08,04,02,46,16.00
2008,08,04,02,47,15.90
2008,08,04,02,48,15.80
2008,08,04,02,49,15.70
2008,08,04,02,50,15.70
2008,08,04,02,51,15.60
2008,08,04,02,52,15.50
2008,08,04,02,53,15.30
2008,08,04,02,54,15.10
2008,08,04,02,55,15.00
2008,08,04,02,56,15.00
2008,08,04,02,57,15.00
2008,08,04,02,58,15.00
2008,08,04,02,59,15.00
2008,08,04,03,00,15.00
2008,08,04,03,01,15.00
2008,08,04,03,02,15.00
2008,08,04,03,03,15.00
2008,08,04,03,04,15.00
2008,08,04,03,05,15.00
2008,08,04,03,06,15.00
2008,08,04,03,07,15.00
2008,08,04,03,08,15.00
2008,08,04,03,09,15.00
2008,08,04,03,10,15.00
2008,08,04,03,11,14.90
2008,08,04,03,12,15.00
2008,08,04,03,13,15.00
2008,08,04,03,14,15.00
2008,08,04,03,15,15.00
2008,08,04,03,16,15.00
2008,08,04,03,17,14.90
2008,08,04,03,18,14.90
2008,08,04,03,19,14.80
2008,08,04,03,20,14.70
2008,08,04,03,21,14.70
2008,08,04,03,22,14.60
2008,08,04,03,23,14.60
2008,08,04,03,24,14.60
2008,08,04,03,25,14.60
2008,08,04,03,26,14.60
2008,08,04,03,27,14.60
2008,08,04,03,28,14.70
2008,08,04,03,29,14.70
2008,08,04,03,30,14.70
2008,08,04,03,31,14.80
2008,08,04,03,32,14.80
2008,08,04,03,33,14.80
2008,08,04,03,34,14.80
2008,08,04,03,35,14.80
2008,08,04,03,36,14.90
2008,08,04,03,37,15.00
2008,08,04,03,38,15.00
2008,08,04,03,39,15.00
2008,08,04,03,40,15.00
2008,08,04,03,41,15.00
2008,08,04,03,42,15.00
2008,08,04,03,43,15.10
2008,08,04,03,44,15.10
2008,08,04,03,45,15.20
2008,08,04,03,46,15.20
2008,08,04,03,47,15.20
2008,08,04,03,48,15.10
2008,08,04,03,49,15.00
2008,08,04,03,50,14.80
2008,08,04,03,51,14.50
2008,08,04,03,52,14.20
2008,08,04,03,53,13.90
2008,08,04,03,54,13.60
2008,08,04,03,55,13.30
2008,08,04,03,56,13.10
2008,08,04,03,57,12.90
2008,08,04,03,58,12.70
2008,08,04,03,59,12.50
2008,08,04,04,00,12.30
2008,08,04,04,01,12.20
2008,08,04,04,02,12.20
2008,08,04,04,03,12.10
2008,08,04,04,04,12.10
2008,08,04,04,05,12.00
2008,08,04,04,06,11.90
2008,08,04,04,07,11.90
2008,08,04,04,08,11.90
2008,08,04,04,09,11.80
2008,08,04,04,10,11.80
2008,08,04,04,11,11.80
2008,08,04,04,12,11.80
2008,08,04,04,13,11.80
2008,08,04,04,14,11.70
2008,08,04,04,15,11.60
2008,08,04,04,16,11.60
2008,08,04,04,17,11.60
2008,08,04,04,18,11.60
2008,08,04,04,19,11.60
2008,08,04,04,20,11.60
2008,08,04,04,21,11.60
2008,08,04,04,22,11.60
2008,08,04,04,23,11.60
2008,08,04,04,24,11.60
2008,08,04,04,25,11.50
2008,08,04,04,26,11.60
2008,08,04,04,27,11.60
2008,08,04,04,28,11.60
2008,08,04,04,29,11.60
2008,08,04,04,30,11.60
2008,08,04,04,31,11.50
2008,08,04,04,32,11.50
2008,08,04,04,33,11.40
2008,08,04,04,34,11.40
2008,08,04,04,35,11.40
2008,08,04,04,36,11.40
2008,08,04,04,37,11.40
2008,08,04,04,38,11.30
2008,08,04,04,39,11.20
2008,08,04,04,40,11.20
2008,08,04,04,41,11.20
2008,08,04,04,42,11.10
2008,08,04,04,43,11.10
2008,08,04,04,44,11.10
2008,08,04,04,45,11.10
2008,08,04,04,46,11.10
2008,08,04,04,47,11.10
2008,08,04,04,48,11.10
2008,08,04,04,49,11.00
2008,08,04,04,50,11.10
2008,08,04,04,51,11.00
2008,08,04,04,52,11.00
2008,08,04,04,53,10.90
2008,08,04,04,54,10.90
2008,08,04,04,55,11.00
2008,08,04,04,56,11.10
2008,08,04,04,57,11.20
2008,08,04,04,58,11.30
2008,08,04,04,59,11.40
2008,08,04,05,00,11.60
2008,08,04,05,01,11.80
2008,08,04,05,02,11.80
2008,08,04,05,03,12.00
2008,08,04,05,04,12.10
2008,08,04,05,05,12.30
2008,08,04,05,06,12.40
2008,08,04,05,07,12.50
2008,08,04,05,08,12.60
2008,08,04,05,09,12.70
2008,08,04,05,10,12.80
2008,08,04,05,11,13.00
2008,08,04,05,12,13.10
2008,08,04,05,13,13.20
2008,08,04,05,14,13.30
2008,08,04,05,15,13.30
2008,08,04,05,16,13.40
2008,08,04,05,17,13.40
2008,08,04,05,18,13.40
2008,08,04,05,19,13.40
2008,08,04,05,20,13.30
2008,08,04,05,21,13.30
2008,08,04,05,22,13.30
2008,08,04,05,23,13.30
2008,08,04,05,24,13.20
2008,08,04,05,25,13.00
2008,08,04,05,26,12.90
2008,08,04,05,27,12.80
2008,08,04,05,28,12.60
2008,08,04,05,29,12.50
2008,08,04,05,30,12.30
2008,08,04,05,31,12.20
2008,08,04,05,32,12.00
2008,08,04,05,33,11.90
2008,08,04,05,34,11.80
2008,08,04,05,35,11.70
2008,08,04,05,36,11.60
2008,08,04,05,37,11.50
2008,08,04,05,38,11.50
2008,08,04,05,39,11.40
2008,08,04,05,40,11.40
2008,08,04,05,41,11.20
2008,08,04,05,42,11.20
2008,08,04,05,43,11.10
2008,08,04,05,44,11.00
2008,08,04,05,45,11.00
2008,08,04,05,46,10.90
2008,08,04,05,47,10.90
2008,08,04,05,48,10.90
2008,08,04,05,49,10.90
2008,08,04,05,50,10.90
2008,08,04,05,51,10.90
2008,08,04,05,52,10.90
2008,08,04,05,53,10.90
2008,08,04,05,54,10.90
2008,08,04,05,55,10.90
2008,08,04,05,56,10.90
2008,08,04,05,57,11.00
2008,08,04,05,58,11.00
2008,08,04,05,59,11.10
2008,08,04,06,00,11.10
2008,08,04,06,01,11.10
2008,08,04,06,02,11.10
2008,08,04,06,03,11.10
2008,08,04,06,04,11.10
2008,08,04,06,05,11.10
2008,08,04,06,06,11.10
2008,08,04,06,07,11.00
2008,08,04,06,08,11.00
2008,08,04,06,09,11.00
2008,08,04,06,10,10.90
2008,08,04,06,11,10.90
2008,08,04,06,12,10.90
2008,08,04,06,13,10.80
2008,08,04,06,14,10.80
2008,08,04,06,15,10.80
2008,08,04,06,16,10.80
2008,08,04,06,17,10.80
2008,08,04,06,18,10.80
2008,08,04,06,19,10.80
2008,08,04,06,20,10.90
2008,08,04,06,21,10.90
2008,08,04,06,22,10.90
2008,08,04,06,23,11.00
2008,08,04,06,24,11.10
2008,08,04,06,25,11.20
2008,08,04,06,26,11.30
2008,08,04,06,27,11.40
2008,08,04,06,28,11.50
2008,08,04,06,29,11.60
2008,08,04,06,30,11.70
2008,08,04,06,31,11.70
2008,08,04,06,32,11.80
2008,08,04,06,33,11.80
2008,08,04,06,34,11.90
2008,08,04,06,35,11.90
2008,08,04,06,36,12.00
2008,08,04,06,37,12.10
2008,08,04,06,38,12.10
2008,08,04,06,39,12.20
2008,08,04,06,40,12.30
2008,08,04,06,41,12.40
2008,08,04,06,42,12.40
2008,08,04,06,43,12.50
2008,08,04,06,44,12.50
2008,08,04,06,45,12.60
2008,08,04,06,46,12.60
2008,08,04,06,47,12.60
2008,08,04,06,48,12.70
2008,08,04,06,49,12.70
2008,08,04,06,50,12.70
2008,08,04,06,51,12.70
2008,08,04,06,52,12.80
2008,08,04,06,53,12.80
2008,08,04,06,54,12.80
2008,08,04,06,55,12.90
2008,08,04,06,56,12.90
2008,08,04,06,57,13.00
2008,08,04,06,58,13.00
2008,08,04,06,59,13.10
2008,08,04,07,00,13.10
2008,08,04,07,01,13.10
2008,08,04,07,02,13.10
2008,08,04,07,03,13.10
2008,08,04,07,04,13.10
2008,08,04,07,05,13.10
2008,08,04,07,06,13.10
2008,08,04,07,07,13.20
2008,08,04,07,08,13.20
2008,08,04,07,09,13.30
2008,08,04,07,10,13.30
2008,08,04,07,11,13.30
2008,08,04,07,12,13.30
2008,08,04,07,13,13.40
2008,08,04,07,14,13.40
2008,08,04,07,15,13.50
2008,08,04,07,16,13.60
2008,08,04,07,17,13.60
2008,08,04,07,18,13.70
2008,08,04,07,19,13.80
2008,08,04,07,20,13.80
2008,08,04,07,21,13.90
2008,08,04,07,22,13.90
2008,08,04,07,23,14.00
2008,08,04,07,24,14.00
2008,08,04,07,25,14.10
2008,08,04,07,26,14.10
2008,08,04,07,27,14.20
2008,08,04,07,28,14.20
2008,08,04,07,29,14.30
2008,08,04,07,30,14.30
2008,08,04,07,31,14.30
2008,08,04,07,32,14.40
2008,08,04,07,33,14.40
2008,08,04,07,34,14.40
2008,08,04,07,35,14.50
2008,08,04,07,36,14.50
2008,08,04,07,37,14.50
2008,08,04,07,38,14.60
2008,08,04,07,39,14.60
2008,08,04,07,40,14.70
2008,08,04,07,41,14.70
2008,08,04,07,42,14.70
2008,08,04,07,43,14.80
2008,08,04,07,44,14.90
2008,08,04,07,45,14.90
2008,08,04,07,46,15.00
2008,08,04,07,47,15.00
2008,08,04,07,48,15.00
2008,08,04,07,49,15.00
2008,08,04,07,50,15.00
2008,08,04,07,51,15.00
2008,08,04,07,52,15.00
2008,08,04,07,53,15.10
2008,08,04,07,54,15.10
2008,08,04,07,55,15.20
2008,08,04,07,56,15.20
2008,08,04,07,57,15.20
2008,08,04,07,58,15.20
2008,08,04,07,59,15.20
2008,08,04,08,00,15.20
2008,08,04,08,01,15.20
2008,08,04,08,02,15.20
2008,08,04,08,03,15.20
2008,08,04,08,04,15.20
2008,08,04,08,05,15.20
2008,08,04,08,06,15.30
2008,08,04,08,07,15.30
2008,08,04,08,08,15.30
2008,08,04,08,09,15.30
2008,08,04,08,10,15.40
2008,08,04,08,11,15.40
2008,08,04,08,12,15.50
2008,08,04,08,13,15.50
2008,08,04,08,14,15.60
2008,08,04,08,15,15.70
2008,08,04,08,16,15.70
2008,08,04,08,17,15.80
2008,08,04,08,18,15.80
2008,08,04,08,19,15.90
2008,08,04,08,20,15.90
2008,08,04,08,21,15.90
2008,08,04,08,22,15.90
2008,08,04,08,23,15.80
2008,08,04,08,24,15.80
2008,08,04,08,25,15.80
2008,08,04,08,26,15.80
2008,08,04,08,27,15.80
2008,08,04,08,28,15.80
2008,08,04,08,29,15.80
2008,08,04,08,30,15.80
2008,08,04,08,31,15.90
2008,08,04,08,32,15.90
2008,08,04,08,33,15.90
2008,08,04,08,34,15.80
2008,08,04,08,35,15.80
2008,08,04,08,36,15.80
2008,08,04,08,37,15.90
2008,08,04,08,38,15.80
2008,08,04,08,39,15.80
2008,08,04,08,40,15.80
2008,08,04,08,41,15.90
2008,08,04,08,42,15.90
2008,08,04,08,43,15.90
2008,08,04,08,44,16.00
2008,08,04,08,45,16.00
2008,08,04,08,46,16.10
2008,08,04,08,47,16.10
2008,08,04,08,48,16.10
2008,08,04,08,49,16.10
2008,08,04,08,50,16.20
2008,08,04,08,51,16.20
2008,08,04,08,52,16.20
2008,08,04,08,53,16.20
2008,08,04,08,54,16.10
2008,08,04,08,55,16.10
2008,08,04,08,56,16.10
2008,08,04,08,57,16.10
2008,08,04,08,58,16.10
2008,08,04,08,59,16.20
2008,08,04,09,00,16.20
2008,08,04,09,01,16.20
2008,08,04,09,02,16.20
2008,08,04,09,03,16.20
2008,08,04,09,04,16.20
2008,08,04,09,05,16.20
2008,08,04,09,06,16.20
2008,08,04,09,07,16.20
2008,08,04,09,08,16.20
2008,08,04,09,09,16.20
2008,08,04,09,10,16.20
2008,08,04,09,11,16.20
2008,08,04,09,12,16.20
2008,08,04,09,13,16.20
2008,08,04,09,14,16.20
2008,08,04,09,15,16.20
2008,08,04,09,16,16.10
2008,08,04,09,17,16.10
2008,08,04,09,18,16.00
2008,08,04,09,19,16.00
2008,08,04,09,20,15.90
2008,08,04,09,21,15.90
2008,08,04,09,22,15.90
2008,08,04,09,23,15.80
2008,08,04,09,24,15.80
2008,08,04,09,25,15.70
2008,08,04,09,26,15.70
2008,08,04,09,27,15.70
2008,08,04,09,28,15.70
2008,08,04,09,29,15.70
2008,08,04,09,30,15.80
2008,08,04,09,31,15.80
2008,08,04,09,32,15.90
2008,08,04,09,33,15.90
2008,08,04,09,34,15.90
2008,08,04,09,35,15.90
2008,08,04,09,36,16.00
2008,08,04,09,37,16.10
2008,08,04,09,38,16.20
2008,08,04,09,39,16.40
2008,08,04,09,40,16.50
2008,08,04,09,41,16.60
2008,08,04,09,42,16.70
2008,08,04,09,43,16.80
2008,08,04,09,44,16.80
2008,08,04,09,45,16.90
2008,08,04,09,46,16.90
2008,08,04,09,47,16.90
2008,08,04,09,48,16.90
2008,08,04,09,49,16.90
2008,08,04,09,50,16.90
2008,08,04,09,51,16.90
2008,08,04,09,52,16.80
2008,08,04,09,53,16.70
2008,08,04,09,54,16.70
2008,08,04,09,55,16.70
2008,08,04,09,56,16.70
2008,08,04,09,57,16.60
2008,08,04,09,58,16.60
2008,08,04,09,59,16.60
2008,08,04,10,00,16.60
2008,08,04,10,01,16.60
2008,08,04,10,02,16.60
2008,08,04,10,03,16.60
2008,08,04,10,04,16.70
2008,08,04,10,05,16.70
2008,08,04,10,06,16.80
2008,08,04,10,07,16.80
2008,08,04,10,08,16.80
2008,08,04,10,09,16.70
2008,08,04,10,10,16.70
2008,08,04,10,11,16.70
2008,08,04,10,12,16.70
2008,08,04,10,13,16.70
2008,08,04,10,14,16.70
2008,08,04,10,15,16.80
2008,08,04,10,16,16.90
2008,08,04,10,17,17.00
2008,08,04,10,18,17.00
2008,08,04,10,19,16.80
2008,08,04,10,20,16.80
2008,08,04,10,21,16.80
2008,08,04,10,22,16.80
2008,08,04,10,23,16.80
2008,08,04,10,24,16.90
2008,08,04,10,25,16.90
2008,08,04,10,26,16.90
2008,08,04,10,27,16.90
2008,08,04,10,28,16.90
2008,08,04,10,29,16.90
2008,08,04,10,30,17.00
2008,08,04,10,31,17.00
2008,08,04,10,32,17.00
2008,08,04,10,33,17.00
2008,08,04,10,34,16.90
2008,08,04,10,35,16.90
2008,08,04,10,36,16.90
2008,08,04,10,37,16.90
2008,08,04,10,38,17.00
2008,08,04,10,39,17.00
2008,08,04,10,40,17.20
2008,08,04,10,41,17.30
2008,08,04,10,42,17.40
2008,08,04,10,43,17.60
2008,08,04,10,44,17.70
2008,08,04,10,45,17.80
2008,08,04,10,46,17.80
2008,08,04,10,47,17.80
2008,08,04,10,48,17.80
2008,08,04,10,49,17.80
2008,08,04,10,50,17.70
2008,08,04,10,51,17.70
2008,08,04,10,52,17.70
2008,08,04,10,53,17.60
2008,08,04,10,54,17.50
2008,08,04,10,55,17.50
2008,08,04,10,56,17.50
2008,08,04,10,57,17.50
2008,08,04,10,58,17.50
2008,08,04,10,59,17.50
2008,08,04,11,00,17.60
2008,08,04,11,01,17.70
2008,08,04,11,02,17.70
2008,08,04,11,03,17.80
2008,08,04,11,04,17.80
2008,08,04,11,05,17.80
2008,08,04,11,06,17.80
2008,08,04,11,07,17.80
2008,08,04,11,08,17.80
2008,08,04,11,09,17.80
2008,08,04,11,10,17.80
2008,08,04,11,11,17.80
2008,08,04,11,12,17.80
2008,08,04,11,13,17.80
2008,08,04,11,14,17.80
2008,08,04,11,15,17.80
2008,08,04,11,16,17.70
2008,08,04,11,17,17.70
2008,08,04,11,18,17.70
2008,08,04,11,19,17.70
2008,08,04,11,20,17.70
2008,08,04,11,21,17.70
2008,08,04,11,22,17.70
2008,08,04,11,23,17.60
2008,08,04,11,24,17.50
2008,08,04,11,25,17.40
2008,08,04,11,26,17.30
2008,08,04,11,27,17.20
2008,08,04,11,28,17.30
2008,08,04,11,29,17.30
2008,08,04,11,30,17.30
2008,08,04,11,31,17.40
2008,08,04,11,32,17.40
2008,08,04,11,33,17.40
2008,08,04,11,34,17.40
2008,08,04,11,35,17.30
2008,08,04,11,36,17.30
2008,08,04,11,37,17.40
2008,08,04,11,38,17.40
2008,08,04,11,39,17.40
2008,08,04,11,40,17.40
2008,08,04,11,41,17.50
2008,08,04,11,42,17.50
2008,08,04,11,43,17.60
2008,08,04,11,44,17.60
2008,08,04,11,45,17.50
2008,08,04,11,46,17.50
2008,08,04,11,47,17.50
2008,08,04,11,48,17.50
2008,08,04,11,49,17.40
2008,08,04,11,50,17.40
2008,08,04,11,51,17.40
2008,08,04,11,52,17.30
2008,08,04,11,53,17.30
2008,08,04,11,54,17.30
2008,08,04,11,55,17.40
2008,08,04,11,56,17.30
2008,08,04,11,57,17.30
2008,08,04,11,58,17.20
2008,08,04,11,59,17.20
2008,08,04,12,00,17.30
2008,08,04,12,01,17.30
2008,08,04,12,02,17.30
2008,08,04,12,03,17.30
2008,08,04,12,04,17.30
2008,08,04,12,05,17.20
2008,08,04,12,06,17.20
2008,08,04,12,07,17.30
2008,08,04,12,08,17.30
2008,08,04,12,09,17.30
2008,08,04,12,10,17.30
2008,08,04,12,11,17.30
2008,08,04,12,12,17.30
2008,08,04,12,13,17.30
2008,08,04,12,14,17.40
2008,08,04,12,15,17.40
2008,08,04,12,16,17.40
2008,08,04,12,17,17.30
2008,08,04,12,18,17.40
2008,08,04,12,19,17.50
2008,08,04,12,20,17.50
2008,08,04,12,21,17.60
2008,08,04,12,22,17.70
2008,08,04,12,23,17.70
2008,08,04,12,24,17.80
2008,08,04,12,25,17.70
2008,08,04,12,26,17.70
2008,08,04,12,27,17.60
2008,08,04,12,28,17.60
2008,08,04,12,29,17.70
2008,08,04,12,30,17.70
2008,08,04,12,31,17.70
2008,08,04,12,32,17.60
2008,08,04,12,33,17.50
2008,08,04,12,34,17.40
2008,08,04,12,35,17.40
2008,08,04,12,36,17.40
2008,08,04,12,37,17.50
2008,08,04,12,38,17.50
2008,08,04,12,39,17.60
2008,08,04,12,40,17.70
2008,08,04,12,41,17.80
2008,08,04,12,42,17.90
2008,08,04,12,43,17.90
2008,08,04,12,44,17.90
2008,08,04,12,45,18.00
2008,08,04,12,46,18.10
2008,08,04,12,47,18.30
2008,08,04,12,48,18.30
2008,08,04,12,49,18.40
2008,08,04,12,50,18.40
2008,08,04,12,51,18.40
2008,08,04,12,52,18.40
2008,08,04,12,53,18.40
2008,08,04,12,54,18.30
2008,08,04,12,55,18.30
2008,08,04,12,56,18.30
2008,08,04,12,57,18.30
2008,08,04,12,58,18.40
2008,08,04,12,59,18.50
2008,08,04,13,00,18.60
2008,08,04,13,01,18.60
2008,08,04,13,02,18.60
2008,08,04,13,03,18.60
2008,08,04,13,04,18.70
2008,08,04,13,05,18.60
2008,08,04,13,06,18.60
2008,08,04,13,07,18.60
2008,08,04,13,08,18.60
2008,08,04,13,09,18.60
2008,08,04,13,10,18.60
2008,08,04,13,11,18.60
2008,08,04,13,12,18.60
2008,08,04,13,13,18.60
2008,08,04,13,14,18.60
2008,08,04,13,15,18.60
2008,08,04,13,16,18.70
2008,08,04,13,17,18.80
2008,08,04,13,18,18.80
2008,08,04,13,19,18.80
2008,08,04,13,20,18.80
2008,08,04,13,21,18.80
2008,08,04,13,22,18.80
2008,08,04,13,23,18.80
2008,08,04,13,24,18.90
2008,08,04,13,25,19.00
2008,08,04,13,26,19.10
2008,08,04,13,27,19.10
2008,08,04,13,28,19.20
2008,08,04,13,29,19.20
2008,08,04,13,30,19.20
2008,08,04,13,31,19.30
2008,08,04,13,32,19.30
2008,08,04,13,33,19.40
2008,08,04,13,34,19.40
2008,08,04,13,35,19.50
2008,08,04,13,36,19.50
2008,08,04,13,37,19.50
2008,08,04,13,38,19.50
2008,08,04,13,39,19.50
2008,08,04,13,40,19.60
2008,08,04,13,41,19.50
2008,08,04,13,42,19.50
2008,08,04,13,43,19.50
2008,08,04,13,44,19.50
2008,08,04,13,45,19.60
2008,08,04,13,46,19.60
2008,08,04,13,47,19.60
2008,08,04,13,48,19.60
2008,08,04,13,49,19.70
2008,08,04,13,50,19.70
2008,08,04,13,51,19.60
2008,08,04,13,52,19.60
2008,08,04,13,53,19.70
2008,08,04,13,54,19.60
2008,08,04,13,55,19.60
2008,08,04,13,56,19.60
2008,08,04,13,57,19.70
2008,08,04,13,58,19.70
2008,08,04,13,59,19.70
2008,08,04,14,00,19.80
2008,08,04,14,01,19.80
2008,08,04,14,02,19.80
2008,08,04,14,03,19.80
2008,08,04,14,04,19.80
2008,08,04,14,05,19.80
2008,08,04,14,06,19.90
2008,08,04,14,07,19.90
2008,08,04,14,08,20.00
2008,08,04,14,09,20.10
2008,08,04,14,10,20.10
2008,08,04,14,11,20.10
2008,08,04,14,12,20.20
2008,08,04,14,13,20.30
2008,08,04,14,14,20.30
2008,08,04,14,15,20.30
2008,08,04,14,16,20.30
2008,08,04,14,17,20.30
2008,08,04,14,18,20.30
2008,08,04,14,19,20.40
2008,08,04,14,20,20.50
2008,08,04,14,21,20.50
2008,08,04,14,22,20.60
2008,08,04,14,23,20.60
2008,08,04,14,24,20.60
2008,08,04,14,25,20.60
2008,08,04,14,26,20.60
2008,08,04,14,27,20.60
2008,08,04,14,28,20.70
2008,08,04,14,29,20.70
2008,08,04,14,30,20.70
2008,08,04,14,31,20.70
2008,08,04,14,32,20.70
2008,08,04,14,33,20.80
2008,08,04,14,34,20.90
2008,08,04,14,35,21.00
2008,08,04,14,36,21.10
2008,08,04,14,37,21.10
2008,08,04,14,38,21.10
2008,08,04,14,39,21.00
2008,08,04,14,40,21.10
2008,08,04,14,41,21.10
2008,08,04,14,42,21.10
2008,08,04,14,43,21.20
2008,08,04,14,44,21.30
2008,08,04,14,45,21.40
2008,08,04,14,46,21.50
2008,08,04,14,47,21.60
2008,08,04,14,48,21.60
2008,08,04,14,49,21.60
2008,08,04,14,50,21.60
2008,08,04,14,51,21.60
2008,08,04,14,52,21.50
2008,08,04,14,53,21.50
2008,08,04,14,54,21.40
2008,08,04,14,55,21.40
2008,08,04,14,56,21.40
2008,08,04,14,57,21.40
2008,08,04,14,58,21.40
2008,08,04,14,59,21.40
2008,08,04,15,00,21.50
2008,08,04,15,01,21.50
2008,08,04,15,02,21.60
2008,08,04,15,03,21.60
2008,08,04,15,04,21.60
2008,08,04,15,05,21.60
2008,08,04,15,06,21.60
2008,08,04,15,07,21.70
2008,08,04,15,08,21.70
2008,08,04,15,09,21.70
2008,08,04,15,10,21.80
2008,08,04,15,11,21.90
2008,08,04,15,12,22.00
2008,08,04,15,13,22.00
2008,08,04,15,14,22.00
2008,08,04,15,15,21.90
2008,08,04,15,16,21.90
2008,08,04,15,17,21.90
2008,08,04,15,18,22.00
2008,08,04,15,19,21.90
2008,08,04,15,20,21.90
2008,08,04,15,21,21.90
2008,08,04,15,22,21.90
2008,08,04,15,23,22.00
2008,08,04,15,24,21.90
2008,08,04,15,25,21.90
2008,08,04,15,26,21.90
2008,08,04,15,27,21.90
2008,08,04,15,28,21.90
2008,08,04,15,29,22.00
2008,08,04,15,30,22.00
2008,08,04,15,31,22.00
2008,08,04,15,32,22.10
2008,08,04,15,33,22.20
2008,08,04,15,34,22.30
2008,08,04,15,35,22.50
2008,08,04,15,36,22.60
2008,08,04,15,37,22.60
2008,08,04,15,38,22.70
2008,08,04,15,39,22.70
2008,08,04,15,40,22.60
2008,08,04,15,41,22.50
2008,08,04,15,42,22.30
2008,08,04,15,43,22.30
2008,08,04,15,44,22.30
2008,08,04,15,45,22.40
2008,08,04,15,46,22.40
2008,08,04,15,47,22.40
2008,08,04,15,48,22.40
2008,08,04,15,49,22.40
2008,08,04,15,50,22.40
2008,08,04,15,51,22.50
2008,08,04,15,52,22.60
2008,08,04,15,53,22.60
2008,08,04,15,54,22.50
2008,08,04,15,55,22.60
2008,08,04,15,56,22.50
2008,08,04,15,57,22.60
2008,08,04,15,58,22.60
2008,08,04,15,59,22.60
2008,08,04,16,00,22.60
2008,08,04,16,01,22.60
2008,08,04,16,02,22.60
2008,08,04,16,03,22.70
2008,08,04,16,04,22.70
2008,08,04,16,05,22.80
2008,08,04,16,06,22.80
2008,08,04,16,07,22.90
2008,08,04,16,08,22.90
2008,08,04,16,09,22.90
2008,08,04,16,10,22.80
2008,08,04,16,11,22.90
2008,08,04,16,12,22.80
2008,08,04,16,13,22.80
2008,08,04,16,14,22.80
2008,08,04,16,15,22.80
2008,08,04,16,16,22.80
2008,08,04,16,17,22.80
2008,08,04,16,18,22.80
2008,08,04,16,19,22.80
2008,08,04,16,20,22.90
2008,08,04,16,21,22.90
2008,08,04,16,22,22.90
2008,08,04,16,23,23.00
2008,08,04,16,24,23.10
2008,08,04,16,25,23.10
2008,08,04,16,26,23.30
2008,08,04,16,27,23.30
2008,08,04,16,28,23.30
2008,08,04,16,29,23.30
2008,08,04,16,30,23.40
2008,08,04,16,31,23.40
2008,08,04,16,32,23.40
2008,08,04,16,33,23.40
2008,08,04,16,34,23.40
2008,08,04,16,35,23.40
2008,08,04,16,36,23.40
2008,08,04,16,37,23.40
2008,08,04,16,38,23.40
2008,08,04,16,39,23.40
2008,08,04,16,40,23.40
2008,08,04,16,41,23.40
2008,08,04,16,42,23.40
2008,08,04,16,43,23.50
2008,08,04,16,44,23.60
2008,08,04,16,45,23.60
2008,08,04,16,46,23.70
2008,08,04,16,47,23.80
2008,08,04,16,48,23.80
2008,08,04,16,49,23.90
2008,08,04,16,50,23.90
2008,08,04,16,51,23.90
2008,08,04,16,52,23.80
2008,08,04,16,53,23.80
2008,08,04,16,54,23.80
2008,08,04,16,55,23.80
2008,08,04,16,56,23.80
2008,08,04,16,57,23.80
2008,08,04,16,58,23.80
2008,08,04,16,59,23.80
2008,08,04,17,00,23.80
2008,08,04,17,01,23.80
2008,08,04,17,02,23.80
2008,08,04,17,03,23.80
2008,08,04,17,04,23.80
2008,08,04,17,05,23.80
2008,08,04,17,06,23.80
2008,08,04,17,07,23.80
2008,08,04,17,08,23.80
2008,08,04,17,09,23.80
2008,08,04,17,10,23.80
2008,08,04,17,11,23.80
2008,08,04,17,12,23.80
2008,08,04,17,13,23.80
2008,08,04,17,14,23.80
2008,08,04,17,15,23.80
2008,08,04,17,16,23.80
2008,08,04,17,17,23.80
2008,08,04,17,18,23.90
2008,08,04,17,19,23.90